KC7WRB Weather Reports


Display with metric or nautical units.
time (UTC)temp
F
wind
direction
speed
MPH
gust
MPH
rain 1hr
in
rain 24hr
in
rain mn
in
humidity
%
barometer
mb
20260506004233 62 145 8.0 9.0 0.00 0.30 0.30 47 1013.5
20260506003728 62 143 4.0 4.0 0.00 0.30 0.30 47 1013.9
20260506003225 62 141 5.0 7.0 0.00 0.30 0.30 50 1013.7
20260506002721 62 138 6.0 8.0 0.00 0.30 0.30 46 1013.4
20260506002217 62 87 4.0 6.0 0.00 0.30 0.30 46 1013.9
20260506001713 62 92 5.0 6.0 0.00 0.30 0.30 48 1013.5
20260506001211 62 146 6.0 8.0 0.00 0.30 0.30 48 1013.4
20260506000708 62 132 6.0 7.0 0.00 0.30 0.30 46 1013.8
20260506000205 62 178 5.0 6.0 0.00 0.30 0.30 47 1013.5
20260505235703 63 119 7.0 8.0 0.00 0.30 0.30 46 1013.4
20260505235200 63 137 6.0 7.0 0.00 0.30 0.30 45 1013.7
20260505234657 63 138 6.0 7.0 0.00 0.30 0.30 45 1013.7
20260505234154 64 140 3.0 4.0 0.00 0.30 0.30 44 1013.8
20260505233645 64 154 2.0 2.0 0.00 0.30 0.30 47 1013.5
20260505233143 62 129 5.0 7.0 0.00 0.30 0.30 49 1013.5
20260505232641 64 137 5.0 6.0 0.00 0.30 0.30 46 1013.8
20260505232138 62 154 1.0 1.0 0.00 0.30 0.30 47 1013.9
20260505231634 61 77 2.0 2.0 0.00 0.30 0.30 50 1013.8
20260505231134 61 77 1.0 1.0 0.00 0.30 0.30 49 1013.8
20260505230631 61 112 8.0 8.0 0.00 0.30 0.30 51 1013.7
20260505230127 61 98 3.0 3.0 0.00 0.30 0.30 52 1013.8
20260505225624 62 92 4.0 6.0 0.00 0.30 0.30 50 1014.0
20260505225120 62 147 4.0 4.0 0.00 0.30 0.30 51 1013.9
20260505224617 61 137 1.0 3.0 0.00 0.30 0.30 53 1013.8
20260505224114 62 90 5.0 6.0 0.00 0.30 0.30 50 1013.8
20260505223611 63 330 11.0 13.0 0.00 0.30 0.30 48 1014.0
20260505223107 63 269 1.0 2.0 0.00 0.30 0.30 46 1014.0
20260505222603 62 237 2.0 2.0 0.00 0.30 0.30 50 1014.2
20260505222059 60 166 4.0 4.0 0.00 0.30 0.30 52 1014.2
20260505221557 60 146 4.0 4.0 0.00 0.30 0.30 52 1014.1
20260505221053 61 148 5.0 6.0 0.00 0.30 0.30 50 1014.4
20260505220551 60 203 2.0 3.0 0.00 0.30 0.30 53 1014.4
20260505220049 60 126 1.0 2.0 0.00 0.30 0.30 53 1014.4
20260505215546 59 132 4.0 6.0 0.00 0.30 0.30 57 1014.4
20260505215044 59 130 8.0 9.0 0.00 0.30 0.30 54 1014.7
20260505214542 59 125 3.0 3.0 0.00 0.30 0.30 53 1014.6
20260505214038 59 187 1.0 1.0 0.00 0.30 0.30 56 1014.6
20260505213536 60 199 4.0 4.0 0.00 0.30 0.30 58 1014.7
20260505213032 59 163 1.0 2.0 0.00 0.30 0.30 60 1014.6
20260505212528 59 268 5.0 6.0 0.00 0.30 0.30 57 1014.7
20260505212026 59 200 2.0 3.0 0.00 0.30 0.30 64 1014.8
20260505211523 58 219 2.0 4.0 0.00 0.30 0.30 68 1014.6
20260505211019 58 106 6.0 7.0 0.00 0.30 0.30 60 1014.8
20260505210516 57 317 2.0 3.0 0.00 0.30 0.30 59 1014.8
20260505210013 57 119 5.0 6.0 0.00 0.30 0.30 64 1014.8
20260505205511 57 194 3.0 4.0 0.00 0.30 0.30 62 1014.9
20260505205008 56 111 3.0 3.0 0.00 0.30 0.30 63 1014.9
20260505204506 56 164 1.0 2.0 0.00 0.30 0.30 63 1014.9
20260505204003 57 161 3.0 6.0 0.00 0.30 0.30 61 1015.0
20260505203459 56 147 4.0 4.0 0.00 0.30 0.30 64 1015.3
20260505202955 55 106 3.0 3.0 0.00 0.30 0.30 65 1015.0
20260505202452 56 114 4.0 4.0 0.00 0.30 0.30 64 1015.0
20260505201948 56 202 0.0 1.0 0.00 0.30 0.30 69 1014.8
20260505201445 56 183 0.0 1.0 0.00 0.30 0.30 62 1015.2
20260505200943 57 111 6.0 7.0 0.00 0.30 0.30 64 1015.0
20260505200441 57 171 4.0 4.0 0.00 0.30 0.30 65 1014.9
20260505195936 55 180 1.0 1.0 0.00 0.30 0.30 67 1015.3
20260505195433 55 152 4.0 4.0 0.00 0.30 0.30 65 1015.2
20260505194931 54 170 6.0 9.0 0.00 0.30 0.30 68 1015.2
20260505194428 54 124 4.0 6.0 0.00 0.30 0.30 70 1015.3
20260505193928 55 182 2.0 2.0 0.00 0.30 0.30 71 1014.9
20260505193426 54 193 6.0 8.0 0.00 0.30 0.30 70 1015.0
20260505192924 55 208 5.0 8.0 0.00 0.30 0.30 73 1015.0
20260505192422 54 196 2.0 2.0 0.00 0.30 0.30 73 1015.2
20260505191919 54 141 4.0 6.0 0.00 0.30 0.30 72 1015.3
20260505191418 53 203 1.0 1.0 0.00 0.30 0.30 65 1015.4
20260505190914 52 210 0.0 0.0 0.00 0.30 0.30 70 1015.4
20260505190409 52 243 2.0 2.0 0.00 0.30 0.30 67 1015.3
20260505185905 51 203 1.0 2.0 0.00 0.30 0.30 69 1015.4
20260505185402 51 169 1.0 1.0 0.00 0.30 0.30 72 1015.2
20260505184858 51 154 2.0 3.0 0.00 0.30 0.30 78 1015.4
20260505184355 50 182 2.0 2.0 0.00 0.30 0.30 79 1015.3
20260505183852 50 207 4.0 4.0 0.00 0.30 0.30 79 1015.2
20260505183349 50 174 1.0 1.0 0.00 0.30 0.30 79 1015.2
20260505182846 49 204 2.0 3.0 0.00 0.30 0.30 81 1015.3
20260505182343 49 183 3.0 3.0 0.00 0.30 0.30 80 1015.3
20260505181839 49 152 1.0 2.0 0.00 0.30 0.30 80 1015.0
20260505181336 49 161 2.0 2.0 0.00 0.30 0.30 82 1015.0
20260505180833 49 126 2.0 2.0 0.00 0.30 0.30 81 1014.7
20260505180329 48 195 3.0 4.0 0.00 0.30 0.30 81 1014.8
20260505175826 48 216 2.0 3.0 0.00 0.30 0.30 81 1014.7
20260505175322 48 153 0.0 1.0 0.00 0.30 0.30 82 1014.6
20260505174819 48 196 3.0 4.0 0.00 0.30 0.30 80 1014.8
20260505174317 48 164 3.0 3.0 0.00 0.30 0.30 82 1014.5
20260505173812 48 179 4.0 6.0 0.00 0.30 0.30 80 1014.7
20260505173309 48 165 4.0 6.0 0.00 0.30 0.30 80 1014.2
20260505172806 48 194 2.0 3.0 0.00 0.30 0.30 82 1014.2
20260505172305 48 201 5.0 7.0 0.00 0.30 0.30 83 1014.2
20260505171758 48 210 3.0 4.0 0.00 0.30 0.30 84 1014.1
20260505171255 47 162 4.0 6.0 0.00 0.30 0.30 82 1014.2
20260505170752 47 190 3.0 3.0 0.00 0.30 0.30 82 1014.2
20260505170249 47 164 5.0 6.0 0.00 0.30 0.30 82 1014.0
20260505165744 47 202 3.0 4.0 0.00 0.30 0.30 82 1013.9
20260505165240 47 161 4.0 4.0 0.00 0.30 0.30 82 1013.9
20260505164736 47 220 4.0 6.0 0.00 0.30 0.30 83 1013.7
20260505164233 47 162 4.0 4.0 0.00 0.30 0.30 84 1013.8
20260505163731 46 169 2.0 2.0 0.00 0.30 0.30 85 1013.8
20260505163230 46 165 3.0 4.0 0.00 0.30 0.30 84 1014.0
20260505162726 46 217 4.0 8.0 0.00 0.30 0.30 85 1013.5
20260505162223 46 212 3.0 4.0 0.00 0.30 0.30 86 1013.9
20260505161720 46 184 1.0 1.0 0.00 0.30 0.30 87 1014.1
20260505161218 46 165 2.0 3.0 0.00 0.30 0.30 85 1013.8
20260505160715 46 175 3.0 3.0 0.00 0.30 0.30 85 1013.7
20260505160213 46 165 0.0 0.0 0.00 0.30 0.30 86 1013.8
20260505153152 46 164 1.0 1.0 0.00 0.29 0.29 88 1013.4
20260505152649 46 168 0.0 0.0 0.00 0.29 0.29 89 1013.3
20260505152145 46 196 1.0 1.0 0.00 0.29 0.29 90 1013.2
20260505151640 46 176 1.0 1.0 0.00 0.29 0.29 92 1013.3
20260505151138 45 200 2.0 3.0 0.00 0.29 0.29 92 1013.2
20260505150633 45 175 0.0 1.0 0.00 0.29 0.29 93 1013.4
20260505150131 45 193 0.0 1.0 0.00 0.29 0.29 93 1013.4
20260505140559 44 193 0.0 0.0 0.07 0.24 0.24 94 1012.6
20260505125013 45 153 1.0 1.0 0.07 0.06 0.06 90 1011.6
20260505124509 45 153 2.0 2.0 0.00 0.05 0.05 90 1011.4
20260505124006 45 174 1.0 1.0 0.00 0.05 0.05 92 1011.4
20260505123503 45 217 0.0 0.0 0.05 0.05 0.05 93 1011.6
20260505122958 45 231 1.0 1.0 0.05 0.05 0.05 93 1011.6
20260505122455 45 208 1.0 1.0 0.00 0.04 0.04 93 1011.1
20260505121952 45 214 2.0 2.0 0.00 0.04 0.04 93 1011.1
20260505121449 45 200 1.0 2.0 0.00 0.04 0.04 93 1011.1
20260505120945 45 210 1.0 1.0 0.00 0.04 0.04 92 1011.1
20260505120442 45 201 0.0 0.0 0.00 0.04 0.04 92 1011.0
20260505115941 45 231 1.0 1.0 0.00 0.04 0.04 92 1011.4
20260505115437 45 246 2.0 2.0 0.00 0.04 0.04 91 1011.5
20260505114936 45 252 3.0 3.0 0.07 0.04 0.04 91 1011.5
20260505114431 45 257 2.0 2.0 0.07 0.04 0.04 90 1011.5
20260505113927 45 260 2.0 2.0 0.05 0.03 0.03 89 1011.5
20260505113424 45 245 2.0 2.0 0.12 0.03 0.03 87 1011.5
20260505112920 46 221 1.0 2.0 0.07 0.02 0.02 85 1011.5
20260505112418 46 203 0.0 0.0 0.05 0.01 0.01 85 1011.4
20260505111915 46 220 3.0 3.0 0.05 0.01 0.01 83 1011.4
20260505111415 46 200 1.0 2.0 0.00 0.00 0.00 83 1011.4
20260505110911 46 240 2.0 2.0 0.00 0.00 0.00 82 1011.4
20260505110408 46 226 3.0 4.0 0.00 0.00 0.00 81 1011.4
20260505101839 46 177 2.0 2.0 0.00 0.00 0.00 81 1011.2
20260505101334 46 185 1.0 1.0 0.00 0.00 0.00 81 1011.2
20260505100830 46 165 0.0 0.0 0.00 0.00 0.00 84 1011.2
20260505100327 46 189 1.0 1.0 0.00 0.00 0.00 85 1011.1
20260505095822 46 189 1.0 1.0 0.00 0.00 0.00 86 1011.1
20260505095320 46 188 0.0 0.0 0.00 0.00 0.00 85 1011.1
20260505094816 46 188 0.0 0.0 0.00 0.00 0.00 85 1011.7
20260505094313 46 202 1.0 1.0 0.00 0.00 0.00 86 1011.5
20260505093808 46 213 1.0 1.0 0.00 0.00 0.00 86 1011.4
20260505093307 46 230 2.0 2.0 0.00 0.00 0.00 86 1011.6
20260505092803 46 225 1.0 1.0 0.00 0.00 0.00 86 1011.7
20260505092304 46 213 2.0 2.0 0.00 0.00 0.00 86 1011.5
20260505091758 46 199 3.0 3.0 0.00 0.00 0.00 85 1011.7
20260505091256 46 209 2.0 3.0 0.00 0.00 0.00 84 1011.6
20260505090754 46 167 1.0 1.0 0.00 0.00 0.00 83 1011.5
20260505090252 46 206 3.0 3.0 0.00 0.00 0.00 83 1011.5
20260505085749 46 213 5.0 8.0 0.00 0.00 0.00 82 1011.6
20260505085247 46 122 5.0 7.0 0.00 0.00 0.00 82 1011.7
20260505084744 46 181 0.0 0.0 0.00 0.00 0.00 83 1011.7
20260505084244 47 182 4.0 6.0 0.00 0.00 0.00 82 1011.7
20260505083740 47 157 5.0 7.0 0.00 0.00 0.00 80 1011.7
20260505083236 46 151 4.0 6.0 0.00 0.00 0.00 81 1011.8
20260505082732 46 195 3.0 4.0 0.00 0.00 0.00 80 1012.0
20260505082230 46 190 0.0 0.0 0.00 0.00 0.00 81 1011.6
20260505081725 47 210 1.0 2.0 0.00 0.00 0.00 82 1011.7
20260505081223 46 158 3.0 3.0 0.00 0.00 0.00 79 1012.0
20260505080720 47 211 2.0 3.0 0.00 0.00 0.00 80 1012.2
20260505080215 47 162 4.0 4.0 0.00 0.00 0.00 79 1011.7
20260505075711 47 190 3.0 3.0 0.00 0.00 0.00 79 1012.0
20260505075209 47 208 1.0 2.0 0.00 0.00 0.00 78 1012.0
20260505074706 47 215 2.0 2.0 0.00 0.00 0.00 78 1012.0
20260505074203 47 177 1.0 1.0 0.00 0.00 0.00 78 1012.0
20260505073700 47 190 2.0 2.0 0.00 0.00 0.00 78 1012.0
20260505073158 47 191 1.0 1.0 0.00 0.00 0.00 77 1011.7
20260505072654 47 171 4.0 6.0 0.00 0.00 0.00 75 1012.3
20260505072151 47 151 0.0 1.0 0.00 0.00 0.00 78 1012.3
20260505071646 46 190 2.0 2.0 0.00 0.00 0.00 81 1012.0
20260505071144 46 180 2.0 2.0 0.00 0.00 0.00 82 1011.9
20260505070641 46 146 3.0 4.0 0.00 0.00 0.00 81 1011.6
20260505070137 46 171 4.0 4.0 0.00 0.00 0.00 82 1011.6
20260505065633 46 177 2.0 2.0 0.00 0.29 0.29 83 1011.4
20260505065130 46 190 7.0 9.0 0.00 0.29 0.29 82 1011.6
20260505064627 46 214 3.0 3.0 0.00 0.29 0.29 83 1011.6
20260505064125 46 172 2.0 6.0 0.00 0.29 0.29 85 1011.7
20260505063622 46 208 4.0 7.0 0.00 0.29 0.29 85 1011.5
20260505063118 46 206 4.0 4.0 0.00 0.29 0.29 85 1011.6
20260505062615 46 192 5.0 8.0 0.00 0.29 0.29 85 1011.6
20260505062112 46 192 4.0 4.0 0.00 0.29 0.29 84 1011.6
20260505061609 46 201 4.0 6.0 0.00 0.29 0.29 84 1011.7
20260505061108 46 173 4.0 7.0 0.00 0.29 0.29 83 1011.7
20260505060605 46 174 2.0 2.0 0.00 0.29 0.29 83 1011.7
20260505055556 46 194 8.0 10.0 0.00 0.29 0.29 82 1011.5
20260505055053 46 154 7.0 9.0 0.00 0.29 0.29 81 1011.6
20260505054550 46 194 4.0 6.0 0.00 0.29 0.29 81 1011.6
20260505054049 46 208 3.0 4.0 0.00 0.29 0.29 81 1011.4
20260505053545 46 175 5.0 8.0 0.00 0.29 0.29 82 1011.6
20260505053042 46 185 4.0 6.0 0.00 0.29 0.29 83 1011.9
20260505052539 46 183 2.0 3.0 0.00 0.29 0.29 85 1011.8
20260505052037 46 156 4.0 6.0 0.00 0.29 0.29 84 1011.6
20260505051533 46 207 3.0 4.0 0.00 0.29 0.29 85 1011.7
20260505051032 46 208 3.0 3.0 0.00 0.29 0.29 84 1011.6
20260505050529 46 212 2.0 4.0 0.07 0.29 0.29 85 1011.7
20260505041457 49 177 2.0 2.0 0.00 0.24 0.24 74 1011.7
20260505040954 49 192 1.0 1.0 0.07 0.24 0.24 73 1011.6
20260505040452 49 233 0.0 0.0 0.07 0.24 0.24 71 1011.6
20260505035948 50 234 1.0 1.0 0.07 0.24 0.24 73 1011.5
20260505035444 50 238 2.0 3.0 0.00 0.23 0.23 69 1011.6
20260505034942 50 200 0.0 0.0 0.00 0.23 0.23 65 1011.2
20260505034438 50 202 2.0 2.0 0.00 0.23 0.23 68 1011.4
20260505033935 50 207 2.0 3.0 0.00 0.23 0.23 69 1011.4
20260505033432 50 195 3.0 3.0 0.00 0.23 0.23 67 1011.2
20260505032930 51 230 3.0 3.0 0.00 0.23 0.23 64 1010.9
20260505032427 51 311 2.0 3.0 0.00 0.23 0.23 63 1011.0
20260505031923 50 164 9.0 10.0 0.00 0.23 0.23 69 1010.8
20260505031420 50 154 3.0 4.0 0.00 0.23 0.23 70 1010.9
20260505030918 49 190 3.0 3.0 0.00 0.23 0.23 71 1010.9
20260505030413 49 155 5.0 6.0 0.00 0.23 0.23 70 1010.8
20260505025909 49 139 6.0 9.0 0.00 0.23 0.23 70 1010.5
20260505025407 49 177 4.0 4.0 0.00 0.23 0.23 72 1010.7
20260505024905 49 186 4.0 4.0 0.00 0.23 0.23 72 1010.4
20260505024403 49 204 8.0 9.0 0.00 0.23 0.23 74 1010.4
20260505023859 49 173 8.0 13.0 0.00 0.23 0.23 74 1010.2
20260505023356 49 159 7.0 10.0 0.00 0.23 0.23 74 1010.3
20260505022853 49 133 4.0 7.0 0.00 0.23 0.23 74 1010.4
20260505022350 49 197 5.0 7.0 0.00 0.23 0.23 75 1010.4
20260505021848 49 258 8.0 13.0 0.00 0.23 0.23 74 1010.5
20260505021344 49 177 7.0 8.0 0.00 0.23 0.23 74 1010.3
20260505020840 49 182 5.0 9.0 0.00 0.23 0.23 74 1010.5
20260505020336 49 183 3.0 6.0 0.00 0.23 0.23 73 1010.5
20260505015833 49 168 5.0 6.0 0.00 0.23 0.23 73 1010.8
20260505015330 49 208 5.0 7.0 0.00 0.23 0.23 72 1010.7
20260505014827 50 175 5.0 7.0 0.00 0.23 0.23 73 1010.9
20260505014324 50 191 8.0 11.0 0.00 0.23 0.23 72 1011.1
20260505013820 50 217 7.0 10.0 0.00 0.23 0.23 74 1010.9
20260505013318 50 175 11.0 14.0 0.00 0.23 0.23 72 1011.4
20260505012816 50 183 5.0 7.0 0.00 0.23 0.23 74 1011.2
20260505012314 50 243 4.0 8.0 0.00 0.23 0.23 74 1011.5
20260505011809 49 165 7.0 8.0 0.00 0.23 0.23 73 1011.6
20260505011307 50 192 6.0 9.0 0.00 0.23 0.23 74 1011.5
20260505010802 50 171 4.0 6.0 0.00 0.23 0.23 75 1011.2
20260505010258 50 163 9.0 10.0 0.00 0.23 0.23 74 1011.6
20260505005754 50 146 3.0 3.0 0.00 0.23 0.23 76 1011.5
20260505005252 50 187 9.0 11.0 0.00 0.23 0.23 75 1011.6
20260505004749 49 237 5.0 6.0 0.00 0.23 0.23 77 1011.6